Welcome to Northern Hawkes Bay. New Zealand.
PWS Header
      nz Flag



Hit Counter


W3C Valid W3C Valid logo


    Wairoa

Select any of the Stations below to visit their websites.










Historic Data from Weather Underground
Select the location of interest below. Wairoa is the default. Please have patience, this Data is slow to load in.
Northern Hawkes Bay Historical Data
Daily Summary for November 11, 2017 Units:  Metric    English   Both
« Previous Day
Next Day »
Daily Weekly Monthly Yearly Custom
  High: Low: Average:
Temperature: 15.8 °C 12.5 °C 13.9 °C
Dew Point: 10.7 °C 7.6 °C 9.3 °C
Humidity: 87% 64% 74%
Wind Speed: 27.0km/h 0.0km/h 11.5km/h
Wind Gust: 42.8km/h - -
Wind- - SSE
Pressure: 1015.8 hPa 1008.4 hPa -
Precipitation: 0.0 mm    
Historical Graphs
 
 
Tabular Data for November 11, 2017
Time Temperature Dew Point Pressure Wind Wind Speed Wind Gust Humidity Rainfall Rate (Hourly) solar
00:08 14.0 °C 8.6 °C 1015.5 hPa South 5.0 km/h 17.2 km/h 70% 0.0 mm 0 W/m2
00:13 14.0 °C 8.8 °C 1015.5 hPa South 5.0 km/h 18.3 km/h 71% 0.0 mm 0 W/m2
00:18 13.9 °C 8.9 °C 1015.5 hPa SSE 6.1 km/h 18.3 km/h 72% 0.0 mm 0 W/m2
00:23 13.8 °C 9.3 °C 1015.5 hPa SSE 1.1 km/h 12.2 km/h 74% 0.0 mm 0 W/m2
00:28 13.8 °C 9.1 °C 1015.5 hPa SSE 6.1 km/h 15.8 km/h 73% 0.0 mm 0 W/m2
00:33 13.9 °C 8.9 °C 1015.8 hPa SSE 1.1 km/h 17.2 km/h 72% 0.0 mm 0 W/m2
00:38 13.9 °C 8.9 °C 1015.8 hPa SSE 1.1 km/h 17.2 km/h 72% 0.0 mm 0 W/m2
00:43 13.9 °C 9.3 °C 1015.8 hPa SSE 2.6 km/h 12.2 km/h 74% 0.0 mm 0 W/m2
00:48 13.9 °C 9.3 °C 1015.5 hPa Calm   12.2 km/h 74% 0.0 mm 0 W/m2
00:53 13.8 °C 9.7 °C 1015.1 hPa SSE 2.6 km/h 12.2 km/h 76% 0.0 mm 0 W/m2
00:58 13.8 °C 9.4 °C 1015.1 hPa South 1.1 km/h 17.2 km/h 75% 0.0 mm 0 W/m2
01:03 13.8 °C 9.7 °C 1015.1 hPa SSE 6.1 km/h 17.2 km/h 76% 0.0 mm 0 W/m2
01:08 13.8 °C 9.7 °C 1015.1 hPa SSE 1.1 km/h 12.2 km/h 76% 0.0 mm 0 W/m2
01:13 13.6 °C 9.3 °C 1015.1 hPa Calm   12.2 km/h 75% 0.0 mm 0 W/m2
01:18 13.6 °C 9.4 °C 1015.1 hPa SSE 1.1 km/h 9.7 km/h 76% 0.0 mm 0 W/m2
01:23 13.8 °C 9.7 °C 1015.1 hPa Calm   9.7 km/h 76% 0.0 mm 0 W/m2
01:28 13.6 °C 9.4 °C 1015.1 hPa SSE 3.5 km/h 9.7 km/h 76% 0.0 mm 0 W/m2
01:33 13.8 °C 9.7 °C 1015.1 hPa South 5.0 km/h 17.2 km/h 76% 0.0 mm 0 W/m2
01:38 13.8 °C 9.8 °C 1015.1 hPa SE 6.1 km/h 17.2 km/h 77% 0.0 mm 0 W/m2
01:43 13.8 °C 9.8 °C 1015.1 hPa ESE 2.6 km/h 12.2 km/h 77% 0.0 mm 0 W/m2
01:48 13.8 °C 9.7 °C 1015.1 hPa SSE 8.7 km/h 17.2 km/h 76% 0.0 mm 0 W/m2
01:53 13.8 °C 9.8 °C 1014.8 hPa SSE 6.1 km/h 17.2 km/h 77% 0.0 mm 0 W/m2
01:58 13.8 °C 9.8 °C 1014.8 hPa SSE 2.6 km/h 14.8 km/h 77% 0.0 mm 0 W/m2
02:03 13.8 °C 9.8 °C 1014.4 hPa SSE 6.1 km/h 17.2 km/h 77% 0.0 mm 0 W/m2
02:08 13.8 °C 9.7 °C 1014.4 hPa SSE 6.1 km/h 17.2 km/h 76% 0.0 mm 0 W/m2
02:13 13.6 °C 9.7 °C 1014.4 hPa South 8.7 km/h 14.8 km/h 77% 0.0 mm 0 W/m2
02:18 13.6 °C 9.8 °C 1014.4 hPa SSE 1.1 km/h 14.8 km/h 78% 0.0 mm 0 W/m2
02:23 13.6 °C 9.8 °C 1014.4 hPa SE 11.1 km/h 17.2 km/h 78% 0.0 mm 0 W/m2
02:28 13.6 °C 9.8 °C 1014.4 hPa SSE 6.1 km/h 17.2 km/h 78% 0.0 mm 0 W/m2
02:33 13.6 °C 9.8 °C 1014.1 hPa South 2.6 km/h 14.8 km/h 78% 0.0 mm 0 W/m2
02:38 13.6 °C 9.8 °C 1014.4 hPa SSE 1.1 km/h 13.4 km/h 78% 0.0 mm 0 W/m2
02:43 13.6 °C 10.1 °C 1014.1 hPa SSE 3.5 km/h 18.3 km/h 79% 0.0 mm 0 W/m2
02:48 13.6 °C 10.1 °C 1014.1 hPa SSE 6.1 km/h 18.3 km/h 79% 0.0 mm 0 W/m2
02:53 13.6 °C 10.2 °C 1014.1 hPa South 11.1 km/h 19.5 km/h 80% 0.0 mm 0 W/m2
02:58 13.6 °C 10.2 °C 1014.4 hPa South 2.6 km/h 19.5 km/h 80% 0.0 mm 0 W/m2
03:03 13.6 °C 10.1 °C 1014.4 hPa Calm   19.5 km/h 79% 0.0 mm 0 W/m2
03:08 13.5 °C 9.7 °C 1014.4 hPa SSE 6.1 km/h 14.8 km/h 78% 0.0 mm 0 W/m2
03:13 13.6 °C 10.1 °C 1014.4 hPa South 5.0 km/h 13.4 km/h 79% 0.0 mm 0 W/m2
03:18 13.6 °C 10.1 °C 1014.4 hPa South 2.6 km/h 17.2 km/h 79% 0.0 mm 0 W/m2
03:23 13.6 °C 10.1 °C 1014.1 hPa South 6.1 km/h 17.2 km/h 79% 0.0 mm 0 W/m2
03:28 13.6 °C 10.1 °C 1014.1 hPa SSE 7.2 km/h 17.2 km/h 79% 0.0 mm 0 W/m2
03:33 13.6 °C 10.1 °C 1014.1 hPa SSE 6.1 km/h 13.4 km/h 79% 0.0 mm 0 W/m2
03:38 13.6 °C 10.1 °C 1014.4 hPa Calm   20.9 km/h 79% 0.0 mm 0 W/m2
03:43 13.6 °C 10.1 °C 1014.4 hPa SE 1.1 km/h 20.9 km/h 79% 0.0 mm 0 W/m2
03:48 13.6 °C 10.1 °C 1014.1 hPa SSE 5.0 km/h 12.2 km/h 79% 0.0 mm 0 W/m2
03:53 13.6 °C 10.1 °C 1014.1 hPa Calm   14.8 km/h 79% 0.0 mm 0 W/m2
03:58 13.6 °C 10.1 °C 1014.1 hPa South 5.0 km/h 17.2 km/h 79% 0.0 mm 0 W/m2
04:03 13.5 °C 9.9 °C 1014.1 hPa SSW 3.5 km/h 17.2 km/h 79% 0.0 mm 0 W/m2
04:08 13.5 °C 9.9 °C 1013.8 hPa South 7.2 km/h 14.8 km/h 79% 0.0 mm 0 W/m2
04:13 13.5 °C 9.9 °C 1013.8 hPa SSE 5.0 km/h 15.8 km/h 79% 0.0 mm 0 W/m2
04:18 13.5 °C 9.9 °C 1013.8 hPa SSE 6.1 km/h 15.8 km/h 79% 0.0 mm 0 W/m2
04:23 13.4 °C 9.8 °C 1013.8 hPa SSE 5.0 km/h 15.8 km/h 79% 0.0 mm 0 W/m2
04:28 13.4 °C 9.8 °C 1013.8 hPa SSE 2.6 km/h 15.8 km/h 79% 0.0 mm 0 W/m2
04:33 13.4 °C 9.8 °C 1013.4 hPa South 14.8 km/h 18.3 km/h 79% 0.0 mm 0 W/m2
04:43 13.5 °C 9.9 °C 1013.8 hPa SE 5.0 km/h 18.3 km/h 79% 0.0 mm 0 W/m2
04:48 13.4 °C 9.7 °C 1013.8 hPa SE 5.0 km/h 13.4 km/h 78% 0.0 mm 0 W/m2
04:53 13.4 °C 9.8 °C 1013.8 hPa Calm   12.2 km/h 79% 0.0 mm 0 W/m2
04:58 13.3 °C 9.7 °C 1013.8 hPa SSE 5.0 km/h 11.1 km/h 79% 0.0 mm 0 W/m2
05:03 13.3 °C 9.7 °C 1013.4 hPa SE 7.2 km/h 17.2 km/h 79% 0.0 mm 0 W/m2
05:08 13.4 °C 9.8 °C 1013.8 hPa SSE 6.1 km/h 17.2 km/h 79% 0.0 mm 0 W/m2
05:13 13.3 °C 9.6 °C 1013.8 hPa Calm   18.3 km/h 78% 0.0 mm 0 W/m2
05:18 13.3 °C 9.6 °C 1013.8 hPa SE 2.6 km/h 18.3 km/h 78% 0.0 mm 0 W/m2
05:23 13.3 °C 9.6 °C 1013.8 hPa SSE 5.0 km/h 12.2 km/h 78% 0.0 mm 0 W/m2
05:28 13.3 °C 9.6 °C 1013.8 hPa SE 1.1 km/h 12.2 km/h 78% 0.0 mm 0 W/m2
05:33 13.3 °C 9.6 °C 1013.8 hPa ESE 3.5 km/h 9.7 km/h 78% 0.0 mm 0 W/m2
05:53 13.4 °C 10.0 °C 1013.4 hPa SSE 3.5 km/h 18.3 km/h 80% 0.0 mm 0 W/m2
05:58 13.4 °C 9.7 °C 1013.4 hPa SSE 12.2 km/h 18.3 km/h 78% 0.0 mm 0 W/m2
06:03 13.4 °C 9.7 °C 1013.4 hPa SE 13.4 km/h 18.3 km/h 78% 0.0 mm 1 W/m2
06:08 13.4 °C 9.4 °C 1013.4 hPa ESE 6.1 km/h 18.3 km/h 77% 0.0 mm 4 W/m2
06:13 13.3 °C 9.6 °C 1013.8 hPa SE 7.2 km/h 18.3 km/h 78% 0.0 mm 9 W/m2
06:18 13.4 °C 9.8 °C 1013.8 hPa SSE 2.6 km/h 17.2 km/h 79% 0.0 mm 13 W/m2
06:23 13.3 °C 9.6 °C 1013.8 hPa SE 5.0 km/h 15.8 km/h 78% 0.0 mm 9 W/m2
06:28 13.4 °C 9.7 °C 1013.8 hPa SSE 2.6 km/h 18.3 km/h 78% 0.0 mm 13 W/m2
06:33 13.5 °C 9.9 °C 1013.4 hPa South 5.0 km/h 19.5 km/h 79% 0.0 mm 18 W/m2
06:38 13.5 °C 9.7 °C 1013.4 hPa South 6.1 km/h 20.9 km/h 78% 0.0 mm 20 W/m2
06:43 13.5 °C 9.7 °C 1013.1 hPa SSE 3.5 km/h 20.9 km/h 78% 0.0 mm 21 W/m2
06:48 13.6 °C 10.1 °C 1013.1 hPa SE 5.0 km/h 18.3 km/h 79% 0.0 mm 29 W/m2
06:53 13.6 °C 9.8 °C 1013.1 hPa SSE 9.7 km/h 17.2 km/h 78% 0.0 mm 39 W/m2
06:58 13.6 °C 9.8 °C 1013.1 hPa South 5.0 km/h 20.9 km/h 78% 0.0 mm 44 W/m2
07:03 13.6 °C 9.8 °C 1013.1 hPa SSE 9.7 km/h 20.9 km/h 78% 0.0 mm 52 W/m2
07:08 13.6 °C 9.8 °C 1013.1 hPa SE 7.2 km/h 19.5 km/h 78% 0.0 mm 44 W/m2
07:13 13.8 °C 9.8 °C 1013.4 hPa ESE 11.1 km/h 17.2 km/h 77% 0.0 mm 48 W/m2
07:18 13.8 °C 9.7 °C 1013.4 hPa SE 11.1 km/h 17.2 km/h 76% 0.0 mm 61 W/m2
07:23 13.8 °C 9.7 °C 1013.8 hPa SSE 6.1 km/h 15.8 km/h 76% 0.0 mm 64 W/m2
07:28 13.8 °C 9.7 °C 1013.8 hPa SSE 8.7 km/h 20.9 km/h 76% 0.0 mm 62 W/m2
07:33 13.8 °C 9.7 °C 1013.8 hPa SSE 9.7 km/h 20.9 km/h 76% 0.0 mm 75 W/m2
07:38 14.0 °C 9.7 °C 1013.4 hPa SSE 6.1 km/h 19.5 km/h 75% 0.0 mm 85 W/m2
07:43 14.0 °C 9.7 °C 1013.8 hPa SSE 9.7 km/h 17.2 km/h 75% 0.0 mm 90 W/m2
07:48 14.0 °C 9.7 °C 1013.4 hPa SSE 5.0 km/h 17.2 km/h 75% 0.0 mm 85 W/m2
07:53 14.0 °C 9.4 °C 1013.4 hPa Calm   17.2 km/h 74% 0.0 mm 98 W/m2
07:58 14.1 °C 9.7 °C 1013.4 hPa South 13.4 km/h 24.5 km/h 75% 0.0 mm 101 W/m2
08:03 14.1 °C 9.7 °C 1013.4 hPa Calm   24.5 km/h 75% 0.0 mm 109 W/m2
08:08 14.1 °C 9.7 °C 1013.4 hPa SSE 11.1 km/h 24.5 km/h 75% 0.0 mm 93 W/m2
08:13 14.1 °C 9.7 °C 1013.4 hPa SSE 3.5 km/h 25.6 km/h 75% 0.0 mm 125 W/m2
08:18 14.3 °C 9.9 °C 1013.4 hPa SSE 9.7 km/h 25.6 km/h 75% 0.0 mm 132 W/m2
08:23 14.4 °C 9.8 °C 1013.8 hPa SSE 7.2 km/h 20.9 km/h 74% 0.0 mm 129 W/m2
08:28 14.4 °C 9.6 °C 1013.8 hPa SSE 11.1 km/h 20.9 km/h 73% 0.0 mm 154 W/m2
08:33 14.4 °C 9.2 °C 1013.8 hPa SE 8.7 km/h 21.9 km/h 71% 0.0 mm 147 W/m2
08:38 14.5 °C 8.9 °C 1013.8 hPa SSE 8.7 km/h 21.9 km/h 69% 0.0 mm 161 W/m2
08:43 14.6 °C 9.4 °C 1013.8 hPa South 9.7 km/h 27.0 km/h 71% 0.0 mm 164 W/m2
08:48 14.6 °C 9.4 °C 1013.8 hPa South 6.1 km/h 27.0 km/h 71% 0.0 mm 152 W/m2
08:53 14.5 °C 9.5 °C 1013.8 hPa SSE 11.1 km/h 23.3 km/h 72% 0.0 mm 167 W/m2
08:58 14.6 °C 9.4 °C 1013.8 hPa SSE 8.7 km/h 23.3 km/h 71% 0.0 mm 152 W/m2
09:03 14.6 °C 9.2 °C 1014.1 hPa South 13.4 km/h 21.9 km/h 70% 0.0 mm 176 W/m2
09:08 14.5 °C 9.1 °C 1013.8 hPa SSE 14.8 km/h 28.0 km/h 70% 0.0 mm 205 W/m2
09:13 14.7 °C 9.5 °C 1013.8 hPa SE 6.1 km/h 28.0 km/h 71% 0.0 mm 178 W/m2
09:18 14.7 °C 9.3 °C 1013.8 hPa ESE 8.7 km/h 31.7 km/h 70% 0.0 mm 215 W/m2
09:23 14.7 °C 8.8 °C 1013.4 hPa SSE 13.4 km/h 31.7 km/h 68% 0.0 mm 198 W/m2
09:29 14.9 °C 9.3 °C 1013.4 hPa SSE 6.1 km/h 23.3 km/h 69% 0.0 mm 207 W/m2
09:34 15.1 °C 9.2 °C 1013.4 hPa SE 9.7 km/h 30.6 km/h 68% 0.0 mm 381 W/m2
09:39 15.5 °C 9.4 °C 1013.8 hPa SE 13.4 km/h 30.6 km/h 67% 0.0 mm 443 W/m2
09:44 15.8 °C 9.7 °C 1013.8 hPa SE 6.1 km/h 24.5 km/h 67% 0.0 mm 374 W/m2
09:49 15.7 °C 9.2 °C 1013.4 hPa SSE 12.2 km/h 24.5 km/h 65% 0.0 mm 391 W/m2
09:54 15.5 °C 9.2 °C 1013.8 hPa SSE 8.7 km/h 24.5 km/h 66% 0.0 mm 262 W/m2
09:59 15.4 °C 9.1 °C 1013.8 hPa South 9.7 km/h 25.6 km/h 66% 0.0 mm 333 W/m2
10:04 15.4 °C 8.8 °C 1013.8 hPa South 6.1 km/h 27.0 km/h 65% 0.0 mm 263 W/m2
10:09 15.2 °C 9.1 °C 1013.8 hPa South 15.8 km/h 27.0 km/h 67% 0.0 mm 232 W/m2
10:14 15.1 °C 9.0 °C 1013.8 hPa SSE 15.8 km/h 25.6 km/h 67% 0.0 mm 249 W/m2
10:19 15.2 °C 9.1 °C 1013.8 hPa SSE 12.2 km/h 25.6 km/h 67% 0.0 mm 255 W/m2
10:24 15.3 °C 9.0 °C 1013.8 hPa SSE 12.2 km/h 25.6 km/h 66% 0.0 mm 319 W/m2
10:29 15.2 °C 8.9 °C 1013.4 hPa SSE 5.0 km/h 27.0 km/h 66% 0.0 mm 270 W/m2
10:34 15.2 °C 8.9 °C 1013.4 hPa SE 8.7 km/h 27.0 km/h 66% 0.0 mm 227 W/m2
10:39 15.1 °C 8.6 °C 1013.4 hPa South 9.7 km/h 25.6 km/h 65% 0.0 mm 337 W/m2
10:44 15.3 °C 9.0 °C 1013.4 hPa South 7.2 km/h 24.5 km/h 66% 0.0 mm 359 W/m2
10:49 15.3 °C 8.6 °C 1013.4 hPa SSE 18.3 km/h 29.4 km/h 64% 0.0 mm 356 W/m2
10:54 15.3 °C 8.6 °C 1013.4 hPa SE 11.1 km/h 29.4 km/h 64% 0.0 mm 348 W/m2
10:59 15.5 °C 8.9 °C 1013.4 hPa SE 8.7 km/h 23.3 km/h 65% 0.0 mm 336 W/m2
11:05 15.4 °C 8.8 °C 1013.4 hPa SSE 15.8 km/h 30.6 km/h 65% 0.0 mm 248 W/m2
11:10 15.1 °C 9.0 °C 1013.4 hPa SSE 13.4 km/h 30.6 km/h 67% 0.0 mm 213 W/m2
11:15 14.7 °C 8.8 °C 1013.4 hPa South 5.0 km/h 31.7 km/h 68% 0.0 mm 171 W/m2
11:20 14.5 °C 8.7 °C 1013.4 hPa SSE 13.4 km/h 31.7 km/h 68% 0.0 mm 195 W/m2
11:25 14.6 °C 9.0 °C 1013.4 hPa SSE 17.2 km/h 34.3 km/h 69% 0.0 mm 204 W/m2
11:30 14.6 °C 8.8 °C 1013.1 hPa SE 13.4 km/h 34.3 km/h 68% 0.0 mm 210 W/m2
11:35 14.7 °C 9.1 °C 1013.1 hPa SE 8.7 km/h 28.0 km/h 69% 0.0 mm 205 W/m2
11:40 14.7 °C 8.8 °C 1013.1 hPa SE 6.1 km/h 33.1 km/h 68% 0.0 mm 226 W/m2
11:45 15.0 °C 9.4 °C 1012.8 hPa SE 5.0 km/h 33.1 km/h 69% 0.0 mm 234 W/m2
11:50 14.9 °C 9.1 °C 1012.8 hPa South 19.5 km/h 29.4 km/h 68% 0.0 mm 245 W/m2
11:55 14.7 °C 8.4 °C 1012.8 hPa South 7.2 km/h 30.6 km/h 66% 0.0 mm 206 W/m2
12:00 14.7 °C 8.7 °C 1012.4 hPa South 11.1 km/h 30.6 km/h 67% 0.0 mm 199 W/m2
12:05 14.4 °C 8.3 °C 1012.8 hPa SSE 14.8 km/h 33.1 km/h 67% 0.0 mm 122 W/m2
12:10 14.2 °C 8.6 °C 1012.4 hPa SSE 20.9 km/h 33.1 km/h 69% 0.0 mm 103 W/m2
12:15 14.1 °C 8.5 °C 1012.4 hPa South 12.2 km/h 28.0 km/h 69% 0.0 mm 144 W/m2
12:20 14.1 °C 8.5 °C 1012.4 hPa South 20.9 km/h 30.6 km/h 69% 0.0 mm 215 W/m2
12:25 14.3 °C 8.7 °C 1012.4 hPa South 8.7 km/h 30.6 km/h 69% 0.0 mm 223 W/m2
12:30 14.4 °C 9.2 °C 1012.8 hPa SSE 15.8 km/h 35.6 km/h 71% 0.0 mm 213 W/m2
12:35 14.1 °C 8.9 °C 1012.4 hPa SSE 12.2 km/h 35.6 km/h 71% 0.0 mm 205 W/m2
12:40 13.9 °C 9.2 °C 1012.1 hPa SSE 15.8 km/h 42.8 km/h 73% 0.0 mm 172 W/m2
12:45 13.8 °C 9.4 °C 1012.4 hPa South 14.8 km/h 42.8 km/h 75% 0.0 mm 164 W/m2
12:50 13.9 °C 9.6 °C 1012.1 hPa South 6.1 km/h 35.6 km/h 75% 0.0 mm 151 W/m2
12:55 14.0 °C 9.2 °C 1012.1 hPa South 11.1 km/h 35.6 km/h 73% 0.0 mm 154 W/m2
13:00 14.1 °C 9.6 °C 1012.1 hPa South 5.0 km/h 35.6 km/h 74% 0.0 mm 132 W/m2
13:05 14.2 °C 9.2 °C 1012.1 hPa SSE 7.2 km/h 24.5 km/h 72% 0.0 mm 137 W/m2
13:10 14.2 °C 9.2 °C 1012.1 hPa SSE 6.1 km/h 28.0 km/h 72% 0.0 mm 114 W/m2
13:15 14.1 °C 9.1 °C 1012.1 hPa SSE 13.4 km/h 30.6 km/h 72% 0.0 mm 138 W/m2
13:20 14.1 °C 8.5 °C 1012.1 hPa SSE 15.8 km/h 31.7 km/h 69% 0.0 mm 172 W/m2
13:25 14.2 °C 8.4 °C 1012.1 hPa SSE 19.5 km/h 33.1 km/h 68% 0.0 mm 213 W/m2
13:30 14.4 °C 8.6 °C 1012.1 hPa South 17.2 km/h 34.3 km/h 68% 0.0 mm 259 W/m2
13:35 14.7 °C 9.1 °C 1011.7 hPa South 18.3 km/h 34.3 km/h 69% 0.0 mm 252 W/m2
13:40 14.7 °C 9.1 °C 1012.1 hPa SSE 17.2 km/h 34.3 km/h 69% 0.0 mm 300 W/m2
13:45 14.8 °C 9.4 °C 1012.1 hPa South 17.2 km/h 34.3 km/h 70% 0.0 mm 369 W/m2
13:50 14.9 °C 9.5 °C 1011.7 hPa SSE 8.7 km/h 33.1 km/h 70% 0.0 mm 433 W/m2
13:55 15.2 °C 9.3 °C 1011.7 hPa SSE 9.7 km/h 33.1 km/h 68% 0.0 mm 296 W/m2
14:00 14.8 °C 10.0 °C 1012.1 hPa South 15.8 km/h 30.6 km/h 73% 0.0 mm 164 W/m2
14:05 13.8 °C 9.8 °C 1011.7 hPa South 18.3 km/h 34.3 km/h 77% 0.0 mm 193 W/m2
14:10 13.8 °C 10.1 °C 1012.1 hPa SSE 17.2 km/h 34.3 km/h 78% 0.0 mm 227 W/m2
14:15 14.0 °C 10.1 °C 1011.7 hPa SSE 21.9 km/h 34.3 km/h 77% 0.0 mm 258 W/m2
14:20 14.0 °C 9.8 °C 1012.1 hPa South 17.2 km/h 33.1 km/h 76% 0.0 mm 233 W/m2
14:25 14.5 °C 8.9 °C 1011.7 hPa South 15.8 km/h 33.1 km/h 69% 0.0 mm 274 W/m2
14:30 14.7 °C 8.7 °C 1011.7 hPa SSE 14.8 km/h 33.1 km/h 67% 0.0 mm 299 W/m2
14:35 14.9 °C 9.1 °C 1011.7 hPa SSE 11.1 km/h 33.1 km/h 68% 0.0 mm 301 W/m2
14:40 15.0 °C 8.7 °C 1011.7 hPa SSE 8.7 km/h 33.1 km/h 66% 0.0 mm 289 W/m2
14:45 14.9 °C 8.8 °C 1011.7 hPa SSE 13.4 km/h 37.8 km/h 67% 0.0 mm 260 W/m2
14:50 14.8 °C 8.9 °C 1011.7 hPa South 11.1 km/h 37.8 km/h 68% 0.0 mm 269 W/m2
14:55 15.0 °C 9.2 °C 1011.7 hPa South 9.7 km/h 28.0 km/h 68% 0.0 mm 313 W/m2
15:00 15.1 °C 9.2 °C 1011.7 hPa South 14.8 km/h 27.0 km/h 68% 0.0 mm 305 W/m2
15:05 15.4 °C 9.3 °C 1011.7 hPa South 11.1 km/h 25.6 km/h 67% 0.0 mm 290 W/m2
15:10 15.2 °C 9.1 °C 1011.7 hPa SSE 8.7 km/h 24.5 km/h 67% 0.0 mm 127 W/m2
15:15 14.2 °C 9.6 °C 1011.7 hPa SSE 18.3 km/h 33.1 km/h 74% 0.0 mm 55 W/m2
15:20 13.1 °C 9.9 °C 1011.7 hPa South 19.5 km/h 33.1 km/h 81% 0.0 mm 67 W/m2
15:25 12.7 °C 10.2 °C 1011.7 hPa South 18.3 km/h 39.3 km/h 85% 0.0 mm 117 W/m2
15:30 12.6 °C 10.3 °C 1011.7 hPa SSW 15.8 km/h 39.3 km/h 86% 0.0 mm 91 W/m2
15:35 12.5 °C 10.4 °C 1011.4 hPa South 17.2 km/h 34.3 km/h 87% 0.0 mm 87 W/m2
15:40 12.7 °C 10.6 °C 1011.4 hPa South 13.4 km/h 31.7 km/h 87% 0.0 mm 96 W/m2
15:45 13.0 °C 10.6 °C 1011.4 hPa South 13.4 km/h 27.0 km/h 85% 0.0 mm 90 W/m2
15:50 13.3 °C 9.3 °C 1011.4 hPa South 7.2 km/h 28.0 km/h 77% 0.0 mm 89 W/m2
15:55 13.5 °C 8.3 °C 1011.1 hPa SSE 13.4 km/h 28.0 km/h 71% 0.0 mm 83 W/m2
16:00 13.6 °C 8.4 °C 1011.4 hPa South 7.2 km/h 30.6 km/h 71% 0.0 mm 80 W/m2
16:05 13.6 °C 8.2 °C 1011.4 hPa SSE 12.2 km/h 30.6 km/h 70% 0.0 mm 78 W/m2
16:10 13.6 °C 8.4 °C 1011.4 hPa SSE 15.8 km/h 36.7 km/h 71% 0.0 mm 75 W/m2
16:17 13.6 °C 8.2 °C 1011.4 hPa SSE 12.2 km/h 36.7 km/h 70% 0.0 mm 74 W/m2
16:23 13.6 °C 8.2 °C 1011.4 hPa SSE 19.5 km/h 27.0 km/h 70% 0.0 mm 72 W/m2
16:26 13.6 °C 8.0 °C 1011.4 hPa SSE 12.2 km/h 25.6 km/h 69% 0.0 mm 67 W/m2
16:31 13.6 °C 8.2 °C 1011.4 hPa SSE 13.4 km/h 25.6 km/h 70% 0.0 mm 64 W/m2
16:34 13.6 °C 8.2 °C 1011.4 hPa South 11.1 km/h 28.0 km/h 70% 0.0 mm 63 W/m2
16:38 13.6 °C 7.8 °C 1011.1 hPa South 12.2 km/h 28.0 km/h 68% 0.0 mm 59 W/m2
16:39 13.6 °C 8.0 °C 1011.1 hPa SSE 15.8 km/h 28.0 km/h 69% 0.0 mm 58 W/m2
16:44 13.6 °C 8.0 °C 1011.1 hPa South 14.8 km/h 30.6 km/h 69% 0.0 mm 60 W/m2
16:49 13.6 °C 7.6 °C 1011.4 hPa South 21.9 km/h 30.6 km/h 67% 0.0 mm 58 W/m2
16:54 13.6 °C 7.8 °C 1011.1 hPa SSE 12.2 km/h 30.6 km/h 68% 0.0 mm 57 W/m2
16:59 13.6 °C 8.2 °C 1010.7 hPa SSE 14.8 km/h 30.6 km/h 70% 0.0 mm 49 W/m2
17:04 13.5 °C 7.9 °C 1011.1 hPa SSE 9.7 km/h 29.4 km/h 69% 0.0 mm 55 W/m2
17:09 13.5 °C 8.3 °C 1010.7 hPa SSE 13.4 km/h 29.4 km/h 71% 0.0 mm 53 W/m2
17:15 13.5 °C 8.8 °C 1010.7 hPa South 18.3 km/h 27.0 km/h 73% 0.0 mm 36 W/m2
17:20 13.1 °C 9.2 °C 1010.7 hPa South 18.3 km/h 33.1 km/h 77% 0.0 mm 46 W/m2
17:25 12.7 °C 9.3 °C 1010.7 hPa South 23.3 km/h 33.1 km/h 80% 0.0 mm 58 W/m2
17:30 12.6 °C 9.4 °C 1010.7 hPa South 19.5 km/h 35.6 km/h 81% 0.0 mm 44 W/m2
17:35 12.5 °C 9.3 °C 1010.4 hPa South 15.8 km/h 35.6 km/h 81% 0.0 mm 39 W/m2
17:40 12.5 °C 9.5 °C 1010.4 hPa South 11.1 km/h 37.8 km/h 82% 0.0 mm 42 W/m2
17:45 12.6 °C 9.6 °C 1010.4 hPa South 14.8 km/h 37.8 km/h 82% 0.0 mm 79 W/m2
17:50 13.1 °C 9.2 °C 1010.4 hPa South 13.4 km/h 33.1 km/h 77% 0.0 mm 76 W/m2
17:55 13.3 °C 9.2 °C 1010.4 hPa South 23.3 km/h 36.7 km/h 76% 0.0 mm 60 W/m2
18:00 13.4 °C 8.9 °C 1010.4 hPa South 19.5 km/h 36.7 km/h 74% 0.0 mm 61 W/m2
18:05 13.5 °C 8.9 °C 1010.0 hPa South 18.3 km/h 36.7 km/h 74% 0.0 mm 65 W/m2
18:10 13.5 °C 8.9 °C 1010.0 hPa South 15.8 km/h 34.3 km/h 74% 0.0 mm 49 W/m2
18:16 13.3 °C 8.8 °C 1010.0 hPa SSE 15.8 km/h 35.6 km/h 74% 0.0 mm 39 W/m2
18:21 13.2 °C 8.9 °C 1010.0 hPa SSE 21.9 km/h 35.6 km/h 75% 0.0 mm 39 W/m2
18:26 13.3 °C 8.8 °C 1010.0 hPa South 20.9 km/h 29.4 km/h 74% 0.0 mm 45 W/m2
18:31 13.4 °C 8.9 °C 1010.0 hPa South 15.8 km/h 31.7 km/h 74% 0.0 mm 46 W/m2
18:36 13.4 °C 8.4 °C 1010.0 hPa South 20.9 km/h 35.6 km/h 72% 0.0 mm 45 W/m2
18:41 13.4 °C 8.3 °C 1010.0 hPa SSE 15.8 km/h 35.6 km/h 71% 0.0 mm 39 W/m2
18:46 13.5 °C 8.6 °C 1010.0 hPa South 23.3 km/h 30.6 km/h 72% 0.0 mm 32 W/m2
18:51 13.5 °C 8.8 °C 1010.0 hPa South 15.8 km/h 39.3 km/h 73% 0.0 mm 28 W/m2
18:56 13.4 °C 8.7 °C 1009.7 hPa South 14.8 km/h 39.3 km/h 73% 0.0 mm 33 W/m2
19:01 13.5 °C 8.8 °C 1010.0 hPa South 9.7 km/h 34.3 km/h 73% 0.0 mm 35 W/m2
19:06 13.5 °C 8.3 °C 1010.0 hPa South 17.2 km/h 31.7 km/h 71% 0.0 mm 31 W/m2
19:11 13.5 °C 8.2 °C 1010.0 hPa South 11.1 km/h 36.7 km/h 70% 0.0 mm 29 W/m2
19:16 13.5 °C 8.3 °C 1010.0 hPa South 15.8 km/h 36.7 km/h 71% 0.0 mm 25 W/m2
19:21 13.5 °C 8.3 °C 1010.0 hPa South 19.5 km/h 33.1 km/h 71% 0.0 mm 20 W/m2
19:26 13.5 °C 8.6 °C 1010.0 hPa South 14.8 km/h 30.6 km/h 72% 0.0 mm 16 W/m2
19:31 13.5 °C 8.3 °C 1010.0 hPa South 18.3 km/h 33.1 km/h 71% 0.0 mm 7 W/m2
19:36 13.5 °C 8.2 °C 1010.0 hPa South 15.8 km/h 36.7 km/h 70% 0.0 mm 3 W/m2
19:41 13.4 °C 8.4 °C 1009.7 hPa South 18.3 km/h 36.7 km/h 72% 0.0 mm 1 W/m2
19:46 13.4 °C 8.7 °C 1010.0 hPa South 18.3 km/h 33.1 km/h 73% 0.0 mm 0 W/m2
19:51 13.4 °C 8.7 °C 1010.0 hPa South 12.2 km/h 33.1 km/h 73% 0.0 mm 0 W/m2
19:56 13.5 °C 9.2 °C 1009.7 hPa South 14.8 km/h 31.7 km/h 75% 0.0 mm 0 W/m2
20:01 13.5 °C 8.9 °C 1010.0 hPa SSE 14.8 km/h 35.6 km/h 74% 0.0 mm 0 W/m2
20:06 13.5 °C 9.2 °C 1009.7 hPa South 14.8 km/h 35.6 km/h 75% 0.0 mm 0 W/m2
20:11 13.5 °C 8.6 °C 1009.7 hPa SSW 15.8 km/h 37.8 km/h 72% 0.0 mm 0 W/m2
20:16 13.5 °C 8.9 °C 1009.7 hPa South 14.8 km/h 37.8 km/h 74% 0.0 mm 0 W/m2
20:21 13.5 °C 8.9 °C 1009.7 hPa South 19.5 km/h 31.7 km/h 74% 0.0 mm 0 W/m2
20:26 13.5 °C 9.2 °C 1009.7 hPa South 13.4 km/h 30.6 km/h 75% 0.0 mm 0 W/m2
20:31 13.5 °C 8.6 °C 1009.7 hPa SSE 18.3 km/h 30.6 km/h 72% 0.0 mm 0 W/m2
20:36 13.5 °C 8.8 °C 1009.7 hPa SSE 17.2 km/h 42.8 km/h 73% 0.0 mm 0 W/m2
20:41 13.5 °C 8.8 °C 1009.7 hPa South 13.4 km/h 42.8 km/h 73% 0.0 mm 0 W/m2
20:46 13.5 °C 8.9 °C 1010.0 hPa SSE 20.9 km/h 33.1 km/h 74% 0.0 mm 0 W/m2
20:51 13.5 °C 8.9 °C 1009.7 hPa South 14.8 km/h 34.3 km/h 74% 0.0 mm 0 W/m2
20:56 13.5 °C 8.8 °C 1009.7 hPa South 11.1 km/h 34.3 km/h 73% 0.0 mm 0 W/m2
21:01 13.5 °C 9.2 °C 1009.7 hPa South 27.0 km/h 33.1 km/h 75% 0.0 mm 0 W/m2
21:06 13.5 °C 9.2 °C 1009.7 hPa South 17.2 km/h 35.6 km/h 75% 0.0 mm 0 W/m2
21:11 13.5 °C 9.2 °C 1009.7 hPa South 18.3 km/h 35.6 km/h 75% 0.0 mm 0 W/m2
21:16 13.5 °C 9.2 °C 1009.7 hPa South 20.9 km/h 35.6 km/h 75% 0.0 mm 0 W/m2
21:21 13.5 °C 9.3 °C 1009.7 hPa South 13.4 km/h 35.6 km/h 76% 0.0 mm 0 W/m2
21:26 13.5 °C 9.3 °C 1009.7 hPa South 17.2 km/h 30.6 km/h 76% 0.0 mm 0 W/m2
21:31 13.5 °C 9.6 °C 1009.7 hPa South 13.4 km/h 34.3 km/h 77% 0.0 mm 0 W/m2
21:36 13.4 °C 9.4 °C 1009.7 hPa South 14.8 km/h 34.3 km/h 77% 0.0 mm 0 W/m2
21:41 13.5 °C 9.6 °C 1009.7 hPa SSE 13.4 km/h 36.7 km/h 77% 0.0 mm 0 W/m2
21:46 13.4 °C 9.4 °C 1009.4 hPa SSE 14.8 km/h 36.7 km/h 77% 0.0 mm 0 W/m2
21:51 13.4 °C 9.3 °C 1009.4 hPa South 11.1 km/h 27.0 km/h 76% 0.0 mm 0 W/m2
21:56 13.5 °C 9.3 °C 1009.4 hPa South 17.2 km/h 29.4 km/h 76% 0.0 mm 0 W/m2
22:01 13.5 °C 9.6 °C 1009.7 hPa South 14.8 km/h 29.4 km/h 77% 0.0 mm 0 W/m2
22:06 13.5 °C 9.6 °C 1009.4 hPa South 23.3 km/h 33.1 km/h 77% 0.0 mm 0 W/m2
22:12 13.5 °C 9.2 °C 1009.4 hPa South 21.9 km/h 33.1 km/h 75% 0.0 mm 0 W/m2
22:17 13.5 °C 9.2 °C 1009.4 hPa South 21.9 km/h 34.3 km/h 75% 0.0 mm 0 W/m2
22:22 13.5 °C 8.6 °C 1009.4 hPa South 14.8 km/h 39.3 km/h 72% 0.0 mm 0 W/m2
22:27 13.5 °C 8.2 °C 1009.4 hPa South 18.3 km/h 39.3 km/h 70% 0.0 mm 0 W/m2
22:32 13.5 °C 8.2 °C 1009.4 hPa South 24.5 km/h 36.7 km/h 70% 0.0 mm 0 W/m2
22:37 13.5 °C 8.6 °C 1009.4 hPa South 17.2 km/h 36.7 km/h 72% 0.0 mm 0 W/m2
22:42 13.5 °C 8.9 °C 1009.4 hPa South 23.3 km/h 36.7 km/h 74% 0.0 mm 0 W/m2
22:47 13.5 °C 8.2 °C 1009.0 hPa South 20.9 km/h 36.7 km/h 70% 0.0 mm 0 W/m2
22:52 13.5 °C 7.9 °C 1009.0 hPa South 17.2 km/h 36.7 km/h 69% 0.0 mm 0 W/m2
22:57 13.5 °C 8.2 °C 1009.0 hPa South 20.9 km/h 33.1 km/h 70% 0.0 mm 0 W/m2
23:02 13.5 °C 8.8 °C 1008.7 hPa South 23.3 km/h 34.3 km/h 73% 0.0 mm 0 W/m2
23:07 13.5 °C 10.5 °C 1009.0 hPa SSW 20.9 km/h 36.7 km/h 82% 0.0 mm 0 W/m2
23:12 13.3 °C 10.7 °C 1008.7 hPa SSW 17.2 km/h 36.7 km/h 84% 0.0 mm 0 W/m2
23:17 13.2 °C 10.7 °C 1008.7 hPa South 21.9 km/h 36.7 km/h 85% 0.0 mm 0 W/m2
23:22 13.3 °C 10.5 °C 1008.7 hPa South 23.3 km/h 36.7 km/h 83% 0.0 mm 0 W/m2
23:27 13.3 °C 10.3 °C 1008.7 hPa South 19.5 km/h 36.7 km/h 82% 0.0 mm 0 W/m2
23:32 13.3 °C 10.3 °C 1008.7 hPa South 17.2 km/h 35.6 km/h 82% 0.0 mm 0 W/m2
23:37 13.3 °C 10.1 °C 1008.7 hPa South 25.6 km/h 35.6 km/h 81% 0.0 mm 0 W/m2
23:42 13.3 °C 9.9 °C 1008.4 hPa South 19.5 km/h 35.6 km/h 80% 0.0 mm 0 W/m2
23:47 13.3 °C 9.9 °C 1008.4 hPa South 27.0 km/h 34.3 km/h 80% 0.0 mm 0 W/m2
23:52 13.3 °C 9.7 °C 1008.4 hPa South 24.5 km/h 35.6 km/h 79% 0.0 mm 0 W/m2
23:57 13.3 °C 9.7 °C 1008.4 hPa South 23.3 km/h 41.7 km/h 79% 0.0 mm 0 W/m2
Northern Hawkes Bay. New Zealand Historic Data
Compliments of Weather Underground - 2 mb